Location: Kolin
(50.0330°N, 15.2000°E)
Time: 17:16:09
(UTC+01:00)

ISS - Visible Passes

Search period start: 11 December 2023 00:00
Search period end: 21 December 2023 00:00
Orbit: 415 x 416 km, 51.6° (Epoch: 11 December)

Date Brightness Start Highest point End Pass type
(mag) Time Alt. Az. Time Alt. Az. Time Alt. Az.
15 Dec -0.6 06:58:50 10° S 07:00:57 16° SE 07:03:04 10° E visible
16 Dec -0.1 06:12:00 10° SE 06:12:26 10° SE 06:12:51 10° SE visible
17 Dec -1.8 06:56:46 10° SSW 06:59:47 32° SSE 07:02:49 10° E visible
18 Dec -1.2 06:08:30 10° SSW 06:11:08 22° SE 06:13:47 10° E visible
19 Dec -0.8 05:20:34 10° S 05:22:30 15° SE 05:24:27 10° ESE visible
19 Dec -3.2 06:55:25 10° WSW 06:58:43 61° SSE 07:02:02 10° ENE visible
20 Dec -2.7 06:07:14 13° SW 06:09:56 43° SSE 06:13:08 10° E visible
